QPF
0.06 0.06 0.06 0.04 0.05 0.04 0.04 0.04 0.04 0.03 0.03 0.04 0.07 0.08 0.07 0.07 0.09 0.06 0.03 0.03 0.03 0.04 0.04 0.04 0.05 0.05 0.06 0.07 0.07 0.08 0.08 0.08 0.09 0.08 0.07 0.07 0.05 0.04
0.06 0.06 0.05 0.03 0.03 0.05 0.05 0.05 0.04 0.03 0.02 0.03 0.05 0.07 0.07 0.06 0.08 0.07 0.04 0.04 0.04 0.03 0.03 0.03 0.04 0.03 0.03 0.04 0.05 0.08 0.09 0.08 0.08 0.10 0.10 0.10 0.08 0.06
0.04 0.04 0.03 0.01 0.02 0.04 0.05 0.05 0.04 0.03 0.02 0.02 0.03 0.05 0.04 0.04 0.05 0.07 0.06 0.04 0.05 0.05 0.04 0.05 0.05 0.04 0.03 0.02 0.03 0.04 0.05 0.06 0.08 0.07 0.07 0.07 0.07 0.07
0.03 0.03 0.02 0.01 0.02 0.03 0.03 0.03 0.03 0.03 0.03 0.02 0.03 0.03 0.04 0.04 0.04 0.05 0.05 0.04 0.05 0.06 0.06 0.07 0.08 0.08 0.06 0.04 0.03 0.03 0.03 0.04 0.05 0.06 0.06 0.06 0.06 0.05
0.04 0.02 0.02 0.02 0.01 0.02 0.02 0.02 0.03 0.03 0.03 0.04 0.04 0.05 0.05 0.05 0.05 0.05 0.04 0.05 0.05 0.05 0.05 0.06 0.07 0.08 0.08 0.06 0.05 0.04 0.04 0.04 0.04 0.04 0.04 0.04 0.05 0.05
0.05 0.04 0.03 0.02 0.02 0.02 0.02 0.02 0.03 0.03 0.04 0.04 0.04 0.05 0.04 0.04 0.04 0.04 0.04 0.05 0.04 0.04 0.03 0.04 0.05 0.06 0.06 0.04 0.04 0.05 0.04 0.04 0.04 0.04 0.03 0.03 0.03 0.04
0.05 0.05 0.05 0.03 0.03 0.03 0.02 0.03 0.04 0.04 0.04 0.04 0.04 0.03 0.03 0.03 0.03 0.02 0.02 0.03 0.04 0.03 0.02 0.02 0.03 0.04 0.05 0.04 0.03 0.03 0.04 0.04 0.04 0.04 0.03 0.02 0.03 0.03
0.06 0.05 0.05 0.05 0.05 0.05 0.05 0.05 0.04 0.04 0.03 0.03 0.03 0.02 0.02 0.02 0.01 0.01 0.01 0.01 0.02 0.03 0.03 0.02 0.02 0.03 0.04 0.05 0.04 0.03 0.03 0.05 0.05 0.04 0.03 0.03 0.03 0.03
0.06 0.07 0.07 0.07 0.08 0.05 0.05 0.05 0.04 0.05 0.05 0.03 0.03 0.02 0.02 0.02 0.01 0.01 0.01 0.01 0.02 0.03 0.03 0.02 0.02 0.02 0.03 0.04 0.05 0.05 0.05 0.06 0.08 0.07 0.05 0.04 0.03 0.03
0.06 0.06 0.06 0.06 0.05 0.04 0.04 0.04 0.03 0.02 0.03 0.03 0.02 0.02 0.03 0.02 0.02 0.01 0.01 0.01 0.02 0.03 0.03 0.02 0.02 0.02 0.02 0.02 0.04 0.05 0.07 0.09 0.10 0.11 0.09 0.06 0.04 0.04
0.08 0.06 0.05 0.04 0.05 0.05 0.05 0.05 0.04 0.03 0.03 0.03 0.02 0.03 0.04 0.03 0.02 0.01 0.01 0.01 0.02 0.03 0.02 0.02 0.02 0.02 0.02 0.01 0.01 0.02 0.02 0.03 0.05 0.07 0.08 0.07 0.06 0.04
0.04 0.04 0.03 0.03 0.04 0.03 0.03 0.03 0.04 0.03 0.03 0.02 0.03 0.03 0.03 0.03 0.03 0.03 0.02 0.02 0.02 0.03 0.03 0.02 0.02 0.02 0.02 0.01 0.01 0.01 0.01 0.01 0.02 0.03 0.05 0.06 0.07 0.06
0.02 0.02 0.02 0.02 0.02 0.02 0.02 0.01 0.01 0.02 0.02 0.03 0.03 0.03 0.03 0.03 0.04 0.06 0.05 0.03 0.02 0.03 0.03 0.03 0.02 0.02 0.02 0.01 0.01 0.01 0.01 0.01 0.01 0.02 0.03 0.04 0.06 0.07
0.02 0.02 0.02 0.02 0.02 0.02 0.02 0.01 0.01 0.01 0.02 0.02 0.03 0.04 0.04 0.04 0.04 0.05 0.07 0.07 0.05 0.04 0.05 0.05 0.04 0.03 0.02 0.01 0.01 0.01 0.01 0.01 0.00 0.01 0.01 0.01 0.02 0.03
0.03 0.04 0.03 0.03 0.04 0.04 0.03 0.03 0.02 0.01 0.01 0.02 0.02 0.02 0.03 0.05 0.04 0.04 0.05 0.07 0.07 0.07 0.06 0.05 0.05 0.04 0.04 0.03 0.02 0.01 0.01 0.01 0.00 0.00 0.00 0.01 0.01 0.01
0.03 0.04 0.04 0.04 0.04 0.05 0.05 0.04 0.03 0.02 0.02 0.02 0.03 0.03 0.02 0.03 0.04 0.04 0.06 0.06 0.07 0.06 0.05 0.04 0.03 0.03 0.03 0.03 0.01 0.01 0.01 0.01 0.01 0.01 0.01 0.00 0.00 0.00
0.03 0.03 0.03 0.03 0.02 0.03 0.04 0.04 0.04 0.03 0.03 0.02 0.02 0.03 0.03 0.03 0.04 0.04 0.05 0.04 0.04 0.04 0.05 0.04 0.03 0.03 0.03 0.02 0.02 0.01 0.00 0.00 0.00 0.00 0.01 0.00 0.00 0.00
0.04 0.03 0.02 0.02 0.02 0.02 0.02 0.02 0.03 0.04 0.03 0.02 0.03 0.02 0.02 0.03 0.03 0.05 0.05 0.04 0.03 0.02 0.02 0.02 0.03 0.03 0.03 0.03 0.03 0.02 0.01 0.01 0.00 0.00 0.00 0.00 0.00 0.00
0.05 0.04 0.03 0.02 0.02 0.02 0.02 0.02 0.02 0.02 0.02 0.02 0.02 0.01 0.02 0.02 0.03 0.04 0.04 0.03 0.02 0.01 0.01 0.02 0.02 0.02 0.02 0.02 0.02 0.02 0.02 0.02 0.01 0.00 0.00 0.00 0.00 0.00
0.03 0.05 0.05 0.04 0.02 0.02 0.02 0.02 0.02 0.02 0.02 0.02 0.02 0.02 0.01 0.02 0.03 0.03 0.02 0.01 0.01 0.01 0.01 0.01 0.01 0.01 0.01 0.01 0.01 0.01 0.02 0.02 0.02 0.01 0.01 0.01 0.01 0.01
0.02 0.03 0.04 0.05 0.05 0.04 0.04 0.03 0.03 0.03 0.03 0.02 0.02 0.01 0.01 0.02 0.02 0.02 0.01 0.01 0.01 0.01 0.01 0.01 0.01 0.00 0.00 0.00 0.01 0.01 0.01 0.02 0.03 0.03 0.02 0.02 0.02 0.01
0.02 0.02 0.03 0.04 0.05 0.05 0.06 0.06 0.04 0.03 0.03 0.02 0.01 0.01 0.01 0.01 0.01 0.01 0.01 0.01 0.01 0.01 0.01 0.01 0.01 0.01 0.01 0.01 0.01 0.01 0.01 0.02 0.02 0.03 0.03 0.03 0.03 0.03
0.02 0.02 0.02 0.03 0.04 0.05 0.05 0.05 0.06 0.05 0.03 0.02 0.02 0.01 0.01 0.01 0.01 0.01 0.01 0.01 0.01 0.01 0.01 0.01 0.01 0.01 0.01 0.01 0.01 0.02 0.02 0.02 0.02 0.02 0.02 0.02 0.02 0.02
MSLP
1017.16 1017.49 1017.79 1018.04 1018.20 1018.24 1018.18 1018.00 1017.74 1017.41 1017.03 1016.62 1016.21 1015.80 1015.40 1015.03 1014.70 1014.43 1014.23 1014.12 1014.10 1014.16 1014.32 1014.54 1014.80 1015.10 1015.39 1015.69 1015.97 1016.25 1016.52 1016.79 1017.07 1017.36 1017.65 1017.92 1018.19 1018.43
1016.68 1016.93 1017.18 1017.38 1017.52 1017.57 1017.53 1017.40 1017.19 1016.92 1016.61 1016.27 1015.90 1015.53 1015.15 1014.77 1014.42 1014.12 1013.86 1013.68 1013.59 1013.59 1013.67 1013.84 1014.06 1014.33 1014.62 1014.92 1015.22 1015.53 1015.83 1016.13 1016.44 1016.74 1017.04 1017.31 1017.57 1017.80
1016.16 1016.34 1016.52 1016.67 1016.78 1016.82 1016.80 1016.71 1016.57 1016.37 1016.13 1015.86 1015.56 1015.24 1014.89 1014.54 1014.20 1013.87 1013.58 1013.35 1013.19 1013.12 1013.13 1013.23 1013.39 1013.60 1013.85 1014.13 1014.43 1014.74 1015.06 1015.39 1015.72 1016.04 1016.36 1016.65 1016.91 1017.14
1015.65 1015.74 1015.85 1015.95 1016.03 1016.06 1016.06 1016.01 1015.91 1015.78 1015.61 1015.42 1015.19 1014.93 1014.65 1014.34 1014.03 1013.71 1013.41 1013.15 1012.94 1012.80 1012.73 1012.74 1012.81 1012.94 1013.12 1013.35 1013.61 1013.89 1014.21 1014.54 1014.89 1015.23 1015.57 1015.89 1016.17 1016.42
1015.16 1015.19 1015.23 1015.28 1015.32 1015.34 1015.34 1015.32 1015.27 1015.19 1015.09 1014.96 1014.81 1014.63 1014.41 1014.18 1013.91 1013.63 1013.35 1013.09 1012.84 1012.65 1012.49 1012.40 1012.36 1012.38 1012.45 1012.58 1012.76 1012.99 1013.27 1013.59 1013.93 1014.30 1014.66 1015.02 1015.34 1015.62
1014.74 1014.70 1014.69 1014.69 1014.70 1014.70 1014.70 1014.69 1014.66 1014.62 1014.57 1014.50 1014.42 1014.32 1014.19 1014.03 1013.84 1013.63 1013.39 1013.14 1012.88 1012.64 1012.41 1012.20 1012.04 1011.92 1011.86 1011.86 1011.93 1012.07 1012.28 1012.56 1012.89 1013.26 1013.65 1014.04 1014.41 1014.75
1014.42 1014.33 1014.26 1014.22 1014.20 1014.18 1014.17 1014.15 1014.13 1014.11 1014.08 1014.06 1014.03 1014.00 1013.95 1013.88 1013.78 1013.64 1013.47 1013.26 1013.01 1012.73 1012.43 1012.13 1011.84 1011.57 1011.36 1011.21 1011.15 1011.17 1011.29 1011.51 1011.80 1012.17 1012.57 1013.00 1013.42 1013.81
1014.23 1014.08 1013.97 1013.89 1013.83 1013.79 1013.75 1013.72 1013.68 1013.66 1013.64 1013.63 1013.64 1013.66 1013.68 1013.69 1013.67 1013.62 1013.52 1013.36 1013.13 1012.84 1012.49 1012.10 1011.70 1011.31 1010.95 1010.66 1010.45 1010.35 1010.37 1010.51 1010.76 1011.10 1011.51 1011.95 1012.40 1012.84
1014.16 1013.97 1013.83 1013.71 1013.62 1013.55 1013.47 1013.40 1013.34 1013.28 1013.24 1013.23 1013.24 1013.28 1013.35 1013.42 1013.47 1013.50 1013.46 1013.35 1013.16 1012.87 1012.50 1012.06 1011.58 1011.09 1010.61 1010.20 1009.88 1009.67 1009.59 1009.65 1009.83 1010.13 1010.51 1010.95 1011.41 1011.86
1014.24 1014.01 1013.83 1013.68 1013.56 1013.44 1013.33 1013.21 1013.09 1012.98 1012.90 1012.85 1012.84 1012.87 1012.95 1013.04 1013.14 1013.21 1013.22 1013.16 1013.00 1012.74 1012.37 1011.92 1011.40 1010.85 1010.32 1009.83 1009.43 1009.14 1008.98 1008.96 1009.08 1009.32 1009.65 1010.06 1010.49 1010.93
1014.45 1014.19 1013.97 1013.79 1013.63 1013.47 1013.31 1013.13 1012.95 1012.78 1012.63 1012.51 1012.45 1012.44 1012.48 1012.56 1012.66 1012.74 1012.78 1012.75 1012.62 1012.39 1012.05 1011.62 1011.12 1010.57 1010.03 1009.53 1009.09 1008.76 1008.56 1008.48 1008.53 1008.70 1008.97 1009.30 1009.67 1010.06
1014.78 1014.49 1014.24 1014.03 1013.83 1013.63 1013.41 1013.17 1012.92 1012.67 1012.44 1012.24 1012.10 1012.01 1011.99 1012.02 1012.07 1012.13 1012.16 1012.14 1012.03 1011.84 1011.54 1011.16 1010.72 1010.23 1009.73 1009.26 1008.85 1008.53 1008.30 1008.18 1008.18 1008.27 1008.44 1008.68 1008.96 1009.25
1015.22 1014.91 1014.63 1014.38 1014.15 1013.90 1013.63 1013.33 1013.01 1012.68 1012.37 1012.08 1011.84 1011.66 1011.55 1011.49 1011.47 1011.47 1011.46 1011.41 1011.31 1011.14 1010.90 1010.59 1010.23 1009.83 1009.42 1009.03 1008.68 1008.39 1008.17 1008.03 1007.97 1007.98 1008.06 1008.18 1008.34 1008.53
1015.77 1015.43 1015.13 1014.85 1014.58 1014.29 1013.97 1013.62 1013.24 1012.84 1012.45 1012.07 1011.74 1011.46 1011.24 1011.08 1010.96 1010.87 1010.79 1010.70 1010.58 1010.42 1010.23 1009.99 1009.71 1009.42 1009.12 1008.83 1008.56 1008.32 1008.13 1007.98 1007.87 1007.80 1007.78 1007.78 1007.82 1007.88
1016.41 1016.05 1015.73 1015.43 1015.12 1014.79 1014.43 1014.04 1013.62 1013.17 1012.72 1012.27 1011.86 1011.48 1011.16 1010.89 1010.66 1010.46 1010.29 1010.13 1009.98 1009.81 1009.64 1009.45 1009.26 1009.06 1008.86 1008.67 1008.48 1008.30 1008.13 1007.98 1007.83 1007.69 1007.57 1007.47 1007.39 1007.34
1017.13 1016.77 1016.43 1016.10 1015.77 1015.41 1015.02 1014.61 1014.16 1013.68 1013.19 1012.70 1012.23 1011.79 1011.37 1011.00 1010.66 1010.36 1010.09 1009.85 1009.63 1009.43 1009.26 1009.10 1008.95 1008.82 1008.69 1008.57 1008.45 1008.31 1008.16 1008.00 1007.82 1007.62 1007.43 1007.24 1007.07 1006.92
1017.94 1017.57 1017.22 1016.87 1016.51 1016.13 1015.73 1015.30 1014.85 1014.37 1013.87 1013.37 1012.87 1012.38 1011.90 1011.45 1011.02 1010.62 1010.25 1009.92 1009.62 1009.37 1009.16 1008.99 1008.85 1008.74 1008.65 1008.56 1008.47 1008.35 1008.20 1008.02 1007.81 1007.58 1007.33 1007.09 1006.86 1006.66
1018.78 1018.42 1018.05 1017.69 1017.32 1016.93 1016.53 1016.11 1015.66 1015.21 1014.73 1014.24 1013.73 1013.23 1012.72 1012.21 1011.71 1011.23 1010.77 1010.35 1009.97 1009.65 1009.37 1009.16 1008.99 1008.85 1008.75 1008.65 1008.54 1008.41 1008.25 1008.05 1007.81 1007.55 1007.28 1007.01 1006.77 1006.56
1019.62 1019.26 1018.89 1018.52 1018.14 1017.75 1017.36 1016.96 1016.54 1016.12 1015.67 1015.21 1014.74 1014.24 1013.72 1013.19 1012.64 1012.10 1011.57 1011.07 1010.61 1010.20 1009.85 1009.56 1009.32 1009.13 1008.97 1008.82 1008.66 1008.49 1008.29 1008.06 1007.80 1007.53 1007.26 1007.00 1006.78 1006.60
1020.38 1020.03 1019.67 1019.29 1018.92 1018.54 1018.16 1017.78 1017.40 1017.01 1016.62 1016.20 1015.76 1015.28 1014.78 1014.24 1013.68 1013.10 1012.52 1011.95 1011.42 1010.93 1010.50 1010.12 1009.79 1009.51 1009.26 1009.04 1008.81 1008.57 1008.32 1008.05 1007.77 1007.50 1007.24 1007.02 1006.85 1006.72
1021.01 1020.67 1020.31 1019.95 1019.58 1019.21 1018.85 1018.50 1018.15 1017.80 1017.45 1017.08 1016.68 1016.24 1015.76 1015.23 1014.66 1014.07 1013.46 1012.85 1012.27 1011.71 1011.20 1010.74 1010.32 1009.94 1009.60 1009.27 1008.95 1008.63 1008.32 1008.01 1007.71 1007.43 1007.20 1007.02 1006.90 1006.85
1021.44 1021.12 1020.78 1020.42 1020.06 1019.71 1019.37 1019.04 1018.72 1018.41 1018.09 1017.76 1017.39 1016.99 1016.53 1016.03 1015.48 1014.89 1014.27 1013.65 1013.03 1012.43 1011.86 1011.33 1010.83 1010.36 1009.92 1009.49 1009.07 1008.67 1008.28 1007.91 1007.58 1007.30 1007.08 1006.94 1006.87 1006.88
1021.65 1021.35 1021.02 1020.68 1020.34 1020.00 1019.67 1019.36 1019.06 1018.77 1018.48 1018.17 1017.83 1017.45 1017.03 1016.55 1016.02 1015.45 1014.86 1014.24 1013.62 1013.00 1012.40 1011.82 1011.26 1010.72 1010.18 1009.67 1009.16 1008.67 1008.20 1007.77 1007.40 1007.09 1006.87 1006.74 1006.71 1006.76
Thickness
5676 5675 5673 5673 5672 5673 5673 5672 5670 5668 5671 5674 5676 5678 5679 5679 5680 5680 5680 5680 5680 5680 5679 5678 5677 5676 5675 5675 5674 5673 5672 5670 5668 5666 5665 5663 5661 5659
5672 5670 5669 5669 5668 5669 5669 5669 5669 5667 5667 5670 5670 5672 5673 5675 5675 5675 5675 5675 5675 5675 5674 5673 5672 5672 5670 5670 5669 5668 5666 5665 5663 5661 5660 5658 5656 5654
5668 5667 5666 5666 5665 5665 5665 5665 5664 5664 5663 5664 5665 5667 5667 5669 5670 5669 5669 5669 5670 5670 5669 5668 5667 5667 5666 5665 5664 5663 5662 5660 5658 5656 5654 5652 5651 5649
5665 5664 5664 5664 5663 5663 5662 5661 5661 5661 5660 5659 5660 5661 5662 5663 5664 5664 5664 5664 5664 5664 5664 5663 5662 5662 5661 5660 5659 5658 5656 5654 5652 5650 5649 5647 5645 5643
5663 5662 5662 5661 5660 5660 5659 5658 5658 5658 5657 5656 5655 5656 5657 5658 5658 5658 5658 5658 5658 5659 5659 5658 5658 5657 5656 5654 5653 5652 5650 5648 5647 5645 5642 5640 5638 5637
5661 5661 5660 5660 5659 5658 5656 5655 5654 5653 5652 5651 5651 5651 5652 5652 5652 5652 5652 5652 5652 5653 5654 5654 5653 5652 5651 5649 5648 5647 5645 5643 5641 5639 5637 5635 5632 5630
5659 5658 5658 5658 5658 5656 5655 5653 5651 5650 5648 5648 5647 5646 5647 5646 5647 5647 5647 5646 5647 5647 5648 5648 5647 5647 5646 5644 5643 5642 5640 5637 5635 5633 5631 5629 5627 5625
5655 5655 5655 5655 5654 5654 5653 5652 5651 5649 5647 5645 5644 5643 5644 5644 5643 5643 5642 5641 5642 5643 5642 5642 5642 5642 5641 5640 5638 5637 5635 5632 5630 5627 5625 5623 5622 5620
5652 5651 5651 5652 5651 5651 5650 5649 5648 5647 5646 5645 5643 5643 5642 5642 5640 5639 5638 5638 5638 5638 5637 5638 5637 5636 5636 5635 5634 5632 5630 5627 5624 5622 5620 5618 5617 5615
5648 5648 5647 5647 5647 5647 5646 5645 5644 5643 5643 5642 5643 5642 5642 5640 5638 5638 5636 5634 5633 5633 5633 5633 5633 5632 5632 5630 5629 5627 5624 5622 5619 5617 5615 5614 5612 5610
5645 5645 5645 5644 5643 5642 5642 5641 5640 5640 5640 5639 5639 5638 5638 5637 5635 5633 5631 5630 5630 5630 5629 5629 5629 5627 5626 5625 5623 5621 5619 5617 5614 5612 5611 5609 5607 5605
5641 5641 5641 5640 5639 5638 5638 5637 5636 5635 5635 5634 5633 5633 5632 5632 5631 5630 5630 5627 5626 5626 5626 5624 5623 5621 5620 5619 5617 5615 5613 5611 5610 5607 5605 5603 5601 5598
5637 5637 5637 5636 5635 5635 5634 5633 5632 5631 5629 5629 5628 5628 5627 5627 5626 5626 5625 5624 5623 5623 5622 5619 5618 5615 5614 5612 5611 5609 5607 5606 5603 5601 5599 5598 5595 5593
5632 5632 5633 5632 5631 5630 5629 5629 5628 5626 5625 5624 5623 5623 5622 5622 5621 5620 5619 5618 5617 5617 5616 5614 5612 5610 5608 5607 5605 5603 5601 5599 5597 5595 5593 5591 5589 5587
5627 5628 5628 5628 5627 5626 5625 5624 5623 5622 5620 5619 5618 5617 5616 5615 5614 5613 5612 5611 5610 5609 5608 5606 5605 5603 5602 5601 5599 5596 5594 5593 5591 5589 5588 5586 5584 5582
5622 5622 5622 5622 5621 5621 5620 5618 5617 5617 5616 5615 5614 5611 5609 5608 5608 5607 5606 5605 5603 5602 5599 5598 5597 5596 5594 5593 5591 5590 5589 5587 5585 5583 5582 5580 5578 5576
5616 5617 5617 5617 5616 5616 5615 5613 5612 5611 5610 5609 5607 5605 5604 5603 5602 5601 5599 5598 5596 5595 5592 5590 5589 5588 5587 5585 5584 5584 5582 5581 5579 5577 5576 5575 5574 5571
5611 5612 5612 5612 5612 5611 5610 5609 5607 5606 5605 5603 5602 5601 5599 5598 5596 5594 5593 5592 5590 5588 5586 5584 5582 5581 5580 5579 5577 5577 5576 5575 5573 5571 5569 5569 5569 5567
5607 5608 5608 5608 5607 5606 5605 5604 5603 5601 5599 5598 5597 5596 5594 5592 5590 5589 5587 5585 5583 5582 5580 5578 5577 5577 5576 5575 5575 5571 5570 5569 5567 5566 5564 5563 5563 5562
5604 5604 5604 5604 5603 5602 5601 5599 5597 5595 5594 5592 5591 5590 5589 5587 5585 5583 5582 5580 5578 5576 5574 5573 5572 5571 5571 5571 5569 5567 5564 5564 5563 5562 5561 5558 5556 5555
5600 5600 5600 5600 5599 5598 5596 5594 5592 5591 5589 5587 5586 5584 5583 5582 5580 5578 5576 5573 5572 5571 5570 5569 5568 5566 5565 5564 5563 5562 5560 5558 5557 5556 5555 5554 5553 5552
5597 5596 5596 5596 5595 5594 5592 5590 5588 5586 5585 5583 5581 5580 5579 5577 5575 5573 5571 5569 5567 5566 5565 5563 5562 5560 5560 5559 5559 5557 5555 5553 5551 5549 5548 5547 5547 5547
5592 5592 5592 5591 5590 5589 5587 5586 5584 5582 5580 5579 5577 5575 5574 5572 5570 5568 5566 5564 5562 5561 5559 5557 5556 5555 5554 5553 5552 5550 5548 5547 5545 5544 5543 5542 5540 5539